Weather History for Rugby, ND

Change the Weather History Date:

Wednesday, April 30, 2014

  Actual Average Record
Temperature  
Mean Temperature 40 °F -  
Max Temperature 50 °F 61 °F 88 °F (1952)
Min Temperature 30 °F 36 °F 16 °F (1966)
Degree Days  
Heating Degree Days 25    
Moisture  
Dew Point 30 °F    
Average Humidity 66    
Maximum Humidity 87    
Minimum Humidity 54    
Precipitation  
Precipitation 0.00 in - - ()
Sea Level Pressure  
Sea Level Pressure 30.10 in    
Wind  
Wind Speed 14 mph (North)    
Max Wind Speed 24 mph    
Max Gust Speed 33 mph    
Visibility 10 miles    
Events      
Averages and records for this station are not official NWS values.
T = Trace of Precipitation, MM = Missing Value Source: NWS Daily Summary

Daily Weather History Graph

Daily Weather History Graph

Search for Another Location

Airport:

Trip Planner

Search our weather history database for the weather conditions in past years. The results will help you decide how hot, cold, wet, or windy it might be!

Date:

Astronomy

Apr. 30, 2014 Rise Set
Actual Time 6:22 AM CDT 8:53 PM CDT
Civil Twilight 5:47 AM CDT 9:28 PM CDT
Nautical Twilight 5:03 AM CDT 10:12 PM CDT
Astronomical Twilight 4:12 AM CDT 11:03 PM CDT
Moon 7:22 AM CDT (4/30) 10:37 PM CDT (4/30)
Length of Visible Light 15h 40m
Length of Day
14h 30m
New Moon, 2% of the Moon is Illuminated
Apr 30
New Moon
May 6
First Quarter
May 14
Full
May 21
Last Quarter
May 28
New

Hourly Weather History & Observations

Time (CDT) Temp. Windchill Dew Point Humidity Pressure Visibility Wind Dir Wind Speed Gust Speed Precip Events Conditions
12:15 AM 33.8 °F 25.3 °F 24.8 °F 70% 30.13 in 10.0 mi NNW 11.5 mph - N/A   Clear
12:35 AM 33.8 °F 25.3 °F 24.8 °F 70% 30.13 in 10.0 mi NNW 11.5 mph - N/A   Clear
12:55 AM 32.0 °F 24.2 °F 24.8 °F 75% 30.13 in 10.0 mi NNW 9.2 mph - N/A   Clear
1:15 AM 32.0 °F 23.0 °F 24.8 °F 75% 30.13 in 10.0 mi North 11.5 mph - N/A   Clear
1:35 AM 32.0 °F 23.6 °F 24.8 °F 75% 30.13 in 10.0 mi NNW 10.4 mph - N/A   Clear
1:55 AM 32.0 °F 23.6 °F 24.8 °F 75% 30.13 in 10.0 mi NNW 10.4 mph - N/A   Clear
2:15 AM 32.0 °F 25.6 °F 24.8 °F 75% 30.13 in 10.0 mi NW 6.9 mph - N/A   Scattered Clouds
2:35 AM 32.0 °F 24.8 °F 24.8 °F 75% 30.12 in 10.0 mi NW 8.1 mph - N/A   Scattered Clouds
2:55 AM 32.0 °F 23.6 °F 24.8 °F 75% 30.12 in 10.0 mi NNW 10.4 mph - N/A   Clear
3:15 AM 32.0 °F 23.6 °F 24.8 °F 75% 30.12 in 10.0 mi NNW 10.4 mph - N/A   Clear
3:35 AM 32.0 °F 23.6 °F 26.6 °F 80% 30.11 in 10.0 mi NNW 10.4 mph - N/A   Clear
3:55 AM 32.0 °F 23.6 °F 26.6 °F 80% 30.11 in 10.0 mi NNW 10.4 mph - N/A   Clear
4:15 AM 32.0 °F 23.6 °F 26.6 °F 80% 30.10 in 10.0 mi NNW 10.4 mph - N/A   Clear
4:35 AM 32.0 °F 23.0 °F 26.6 °F 80% 30.10 in 10.0 mi NW 11.5 mph - N/A   Clear
4:55 AM 32.0 °F 24.8 °F 26.6 °F 80% 30.11 in 10.0 mi NNW 8.1 mph - N/A   Clear
5:15 AM 32.0 °F 24.2 °F 26.6 °F 80% 30.11 in 10.0 mi NNW 9.2 mph - N/A   Clear
5:35 AM 30.2 °F 21.3 °F 26.6 °F 86% 30.12 in 10.0 mi NNW 10.4 mph - N/A   Clear
6:15 AM 32.0 °F 23.6 °F 26.6 °F 80% 30.12 in 10.0 mi NNW 10.4 mph - N/A   Clear
6:35 AM 32.0 °F 24.2 °F 26.6 °F 80% 30.13 in 10.0 mi NW 9.2 mph - N/A   Clear
6:55 AM 32.0 °F 24.8 °F 28.4 °F 87% 30.13 in 10.0 mi NW 8.1 mph - N/A   Clear
7:15 AM 32.0 °F 22.1 °F 26.6 °F 80% 30.13 in 10.0 mi NNW 13.8 mph - N/A   Clear
7:35 AM 33.8 °F 24.3 °F 26.6 °F 75% 30.12 in 10.0 mi NNW 13.8 mph - N/A   Clear
7:55 AM 35.6 °F 26.6 °F 26.6 °F 70% 30.13 in 10.0 mi NNW 13.8 mph - N/A   Clear
8:15 AM 35.6 °F 25.9 °F 26.6 °F 70% 30.12 in 10.0 mi NNW 16.1 mph - N/A   Clear
8:35 AM 37.4 °F 28.5 °F 26.6 °F 65% 30.13 in 10.0 mi NNW 15.0 mph - N/A   Clear
8:55 AM 37.4 °F 28.2 °F 26.6 °F 65% 30.12 in 10.0 mi NNW 16.1 mph 23.0 mph N/A   Clear
9:15 AM 37.4 °F 27.5 °F 28.4 °F 70% 30.12 in 10.0 mi NNW 18.4 mph - N/A   Clear
9:35 AM 37.4 °F 27.2 °F 28.4 °F 70% 30.12 in 10.0 mi NNW 19.6 mph - N/A   Clear
9:55 AM 39.2 °F 30.5 °F 28.4 °F 65% 30.12 in 10.0 mi NNW 16.1 mph - N/A   Clear
10:15 AM 39.2 °F 29.8 °F 30.2 °F 70% 30.12 in 10.0 mi NNW 18.4 mph 24.2 mph N/A   Clear
10:35 AM 41.0 °F 32.8 °F 32.0 °F 70% 30.12 in 10.0 mi NNW 16.1 mph - N/A   Clear
10:55 AM 44.6 °F 36.4 °F 32.0 °F 61% 30.11 in 10.0 mi North 20.7 mph 28.8 mph N/A   Clear
11:15 AM 44.6 °F 36.1 °F 32.0 °F 61% 30.11 in 10.0 mi North 21.9 mph 32.2 mph N/A   Clear
11:35 AM 46.4 °F 38.1 °F 32.0 °F 57% 30.11 in 10.0 mi NNE 24.2 mph 29.9 mph N/A   Clear
11:55 AM 46.4 °F 39.5 °F 32.0 °F 57% 30.11 in 10.0 mi North 17.3 mph 25.3 mph N/A   Clear
12:15 PM 46.4 °F 38.7 °F 32.0 °F 57% 30.11 in 10.0 mi NNE 20.7 mph 28.8 mph N/A   Clear
12:35 PM 46.4 °F 39.2 °F 32.0 °F 57% 30.11 in 10.0 mi NNE 18.4 mph 25.3 mph N/A   Partly Cloudy
12:55 PM 46.4 °F 38.7 °F 32.0 °F 57% 30.10 in 10.0 mi North 20.7 mph 25.3 mph N/A   Scattered Clouds
1:15 PM 46.4 °F 38.5 °F 32.0 °F 57% 30.10 in 10.0 mi North 21.9 mph 27.6 mph N/A   Partly Cloudy
1:35 PM 46.4 °F 39.2 °F 33.8 °F 62% 30.10 in 10.0 mi North 18.4 mph 25.3 mph N/A   Partly Cloudy
1:55 PM 46.4 °F 39.5 °F 32.0 °F 57% 30.10 in 10.0 mi North 17.3 mph 25.3 mph N/A   Partly Cloudy
2:15 PM 46.4 °F 38.7 °F 32.0 °F 57% 30.10 in 10.0 mi North 20.7 mph - N/A   Partly Cloudy
2:35 PM 46.4 °F 40.1 °F 33.8 °F 62% 30.09 in 10.0 mi NNW 15.0 mph - N/A   Scattered Clouds
2:55 PM 48.2 °F - 33.8 °F 58% 30.09 in 10.0 mi NNW 20.7 mph 27.6 mph N/A   Partly Cloudy
3:15 PM 48.2 °F - 33.8 °F 58% 30.08 in 10.0 mi North 21.9 mph 27.6 mph N/A   Partly Cloudy
3:35 PM 48.2 °F - 33.8 °F 58% 30.08 in 10.0 mi North 20.7 mph 33.4 mph N/A   Partly Cloudy
3:55 PM 50.0 °F - 35.6 °F 58% 30.08 in 10.0 mi North 20.7 mph 28.8 mph N/A   Partly Cloudy
4:15 PM 50.0 °F - 35.6 °F 58% 30.08 in 10.0 mi North 21.9 mph 27.6 mph N/A   Scattered Clouds
4:35 PM 50.0 °F - 33.8 °F 54% 30.07 in 10.0 mi North 21.9 mph 32.2 mph N/A   Mostly Cloudy
4:55 PM 50.0 °F - 35.6 °F 58% 30.07 in 10.0 mi North 20.7 mph 27.6 mph N/A   Mostly Cloudy
5:15 PM 50.0 °F - 35.6 °F 58% 30.07 in 10.0 mi North 19.6 mph 28.8 mph N/A   Mostly Cloudy
5:35 PM 50.0 °F - 35.6 °F 58% 30.07 in 10.0 mi North 20.7 mph 26.5 mph N/A   Partly Cloudy
5:55 PM 50.0 °F - 35.6 °F 58% 30.07 in 10.0 mi NNE 21.9 mph 26.5 mph N/A   Scattered Clouds
6:15 PM 50.0 °F - 35.6 °F 58% 30.07 in 10.0 mi North 19.6 mph 25.3 mph N/A   Partly Cloudy
6:35 PM 50.0 °F - 35.6 °F 58% 30.07 in 10.0 mi NNE 20.7 mph 29.9 mph N/A   Clear
6:55 PM 50.0 °F - 33.8 °F 54% 30.07 in 10.0 mi North 20.7 mph 27.6 mph N/A   Partly Cloudy
7:15 PM 50.0 °F - 33.8 °F 54% 30.07 in 10.0 mi North 21.9 mph 27.6 mph N/A   Scattered Clouds
7:35 PM 50.0 °F - 33.8 °F 54% 30.07 in 10.0 mi North 23.0 mph - N/A   Partly Cloudy
7:55 PM 48.2 °F - 33.8 °F 58% 30.08 in 10.0 mi North 18.4 mph 25.3 mph N/A   Mostly Cloudy
8:15 PM 48.2 °F - 35.6 °F 62% 30.08 in 10.0 mi North 11.5 mph - N/A   Scattered Clouds
8:35 PM 48.2 °F - 32.0 °F 54% 30.08 in 10.0 mi North 16.1 mph 24.2 mph N/A   Partly Cloudy
8:55 PM 46.4 °F 40.1 °F 33.8 °F 62% 30.08 in 10.0 mi North 15.0 mph - N/A   Clear
9:15 PM 46.4 °F 40.7 °F 32.0 °F 57% 30.08 in 10.0 mi North 12.7 mph - N/A   Clear
9:35 PM 44.6 °F 38.1 °F 32.0 °F 61% 30.09 in 10.0 mi North 13.8 mph - N/A   Clear
9:55 PM 44.6 °F 38.8 °F 32.0 °F 61% 30.09 in 10.0 mi North 11.5 mph - N/A   Clear
10:15 PM 42.8 °F 36.2 °F 32.0 °F 66% 30.09 in 10.0 mi North 12.7 mph - N/A   Clear
10:35 PM 42.8 °F 37.0 °F 32.0 °F 66% 30.09 in 10.0 mi North 10.4 mph - N/A   Clear
10:55 PM 41.0 °F 35.8 °F 30.2 °F 65% 30.09 in 10.0 mi North 8.1 mph - N/A   Clear
11:15 PM 39.2 °F 33.6 °F 28.4 °F 65% 30.09 in 10.0 mi North 8.1 mph - N/A   Clear
11:35 PM 39.2 °F 33.0 °F 28.4 °F 65% 30.09 in 10.0 mi North 9.2 mph - N/A   Clear
11:55 PM 39.2 °F 33.6 °F 26.6 °F 61% 30.08 in 10.0 mi North 8.1 mph - N/A   Clear